Regional Weather Roundup
Issued by NWS

Home | Current Version | Previous Version | Graphics & Text | Print | Product List | Glossary On
Versions: 1 2 3 4 5 6 7 8 9 10 11 12 13 14 15 16 17 18 19 20 21 22 23 24 25 26 27 28 29 30 31 32 33 34 35 36 37 38 39 40 41 42 43 44 45 46 47 48 49 50
000
ASUS43 KLMK 011410
RWRKY
KENTUCKY REGIONAL WEATHER ROUNDUP
NATIONAL WEATHER SERVICE LOUISVILLE KY
1000 AM EDT WED OCT 01 2014

NOTE "FAIR" INDICATES FEW OR NO CLOUDS BELOW 12,000 FEET
WITH NO SIGNIFICANT WEATHER AND/OR OBSTRUCTIONS TO VISIBILITY.

KYZ001>023-026-027-061>063-070>075-011500-
WESTERN AND SOUTH CENTRAL KENTUCKY

CITY           SKY/WX    TMP DP  RH WIND       PRES   REMARKS
PADUCAH        MOSUNNY   68  60  75 SE3       29.95R
HENDERSON      NOT AVBL
OWENSBORO      MOSUNNY   67  61  81 SE7       29.99R
HOPKINSVILLE   MOSUNNY   68  58  70 SE6       29.98R
BOWLING GREEN  SUNNY     66  59  78 CALM      30.00R
GLASGOW        SUNNY     65  57  75 CALM      30.01R
$$

KYZ024-025-028>034-038-045-046-053-011500-
NORTH CENTRAL KENTUCKY

CITY           SKY/WX    TMP DP  RH WIND       PRES   REMARKS
LOUISVILLE/SDF SUNNY     62  56  80 CALM      30.01R
LOUISVILLE/LOU SUNNY     62  55  77 NE5       30.02R
FORT KNOX      PTSUNNY   59  57  94 E6        30.00R FOG
$$

KYZ035>037-039>044-047>052-055>060-089>105-011500-
NORTHEAST KENTUCKY

CITY           SKY/WX    TMP DP  RH WIND       PRES   REMARKS
LEXINGTON      FOG       60  58  92 E5        30.03R VSB 1/2
COVINGTON      SUNNY     58  51  78 NE5       30.03R
FRANKFORT      MOSUNNY   58  53  84 E5        30.02R
$$

KYZ054-064>069-076>088-106>120-011500-
SOUTHEAST KENTUCKY

CITY           SKY/WX    TMP DP  RH WIND       PRES   REMARKS
JACKSON        FOG       59  58  96 CALM      30.04R VSB 1/4
LONDON         SUNNY     62  57  83 CALM      30.03R
SOMERSET       SUNNY     61  57  88 CALM      30.04R
MIDDLESBORO    FOG       54  54 100 CALM      30.07R VSB 1
MONTICELLO     SUNNY     66  58  75 CALM      30.04R
$$




USA.gov is the U.S. government's official web portal to all federal, state and local government web resources and services.